Regional Weather Roundup
Issued by NWS

Home | Current Version | Previous Version | Graphics & Text | Print | Product List | Glossary On
Versions: 1 2 3 4 5 6 7 8 9 10 11 12 13 14 15 16 17 18 19 20 21 22 23 24 25 26 27 28 29 30 31 32 33 34 35 36 37 38 39 40 41 42 43 44 45 46 47 48 49
000
ASUS45 KSLC 010110
RWRUT

UTAH REGIONAL WEATHER ROUNDUP
NATIONAL WEATHER SERVICE SALT LAKE CITY UT
700 PM MDT TUE SEP 30 2014

UTZ001>011-023>025-010200-

NORTHERN UTAH

CITY           SKY/WX    TMP DP  RH WIND       PRES   REMARKS
HILL AFB       PTCLDY    50  48  93 SE7       29.94F
LOGAN          NOT AVBL
OGDEN          MOCLDY    53  47  79 SE5       29.93F
PROVO AIRPORT  MOCLDY    57  43  58 NW7       29.93R
SALT LAKE CITY MOCLDY    54  46  74 NE13      29.92F
VERNAL         MOCLDY    55  44  66 N5        29.91R
WENDOVER       PTCLDY    61  45  55 E8        29.92R
HEBER CITY     DRIZZLE   50  43  76 CALM      29.97R
WEST JORDAN    PTCLDY    55  46  71 N10       29.94F

$$

UTZ012>022-026-027-010200-

SOUTHERN UTAH

CITY           SKY/WX    TMP DP  RH WIND       PRES   REMARKS
BRYCE CANYON   PTCLDY    54  30  40 NW8       30.04S
CEDAR CITY     PTCLDY    61  41  47 SW7       29.93S
MILFORD        CLEAR     66  39  37 S7        29.89F
MOAB/CYNLANDS  CLEAR     65  44  46 N6        29.87S
PRICE          MOCLDY    59  37  44 NW6       29.94S
ST GEORGE      MOCLDY    79  37  22 W10       29.82F
KANAB            N/A     66  34  30 SW7       29.94F

$$

REGIONAL REPORTS     COLORADO/ARIZONA

CITY           SKY/WX    TMP DP  RH WIND       PRES   REMARKS
CRAIG, CO      CLOUDY    49  42  77 SW3       29.97R
GRAND JUNCTION MOCLDY    59  43  55 N8        29.91R
RIFLE          MOCLDY    57  40  52 W13       29.93R
MONTROSE       CLEAR     56  44  64 S6        29.98R
CORTEZ         CLEAR     58  39  49 NW3       29.98S
PAGE, AZ       NOT AVBL
GRAND CANYON   CLEAR     60  39  45 W3        30.02F
KINGMAN        CLEAR     76  36  23 SW12      29.86S
FLAGSTAFF      CLEAR     59  36  42 SW9       30.06R

$$

REGIONAL REPORTS    NEVADA/IDAHO/WYOMING

CITY           SKY/WX    TMP DP  RH WIND       PRES   REMARKS
LAS VEGAS, NV  CLEAR     84  36  18 SE3       29.72F
ELY            PTCLDY    61  33  35 NW9       29.96S
ELKO           PTCLDY    58  38  47 N16       29.96R
POCATELLO, ID  PTCLDY    52  38  58 SW15      29.91S
BURLEY         MOCLDY    52  35  52 W20G29    29.92R
EVANSTON, WY   LGT RAIN  41  38  89 W13       29.99F
ROCK SPRINGS   MOCLDY    48  38  68 W15       29.94R

$$


USA.gov is the U.S. government's official web portal to all federal, state and local government web resources and services.